[[{"header":{"parameterUnit":"m.s-1","parameterCategory":2,"la1":30.2991,"la2":30.254,"lo1":-89.0895,"lo2":-89.0444,"dy":0.0017,"dx":0.0017,"nx":28,"ny":28,"refTime":"2024-03-23T03:00:00:Z","depth":"0","parameterNumber":2,"parameterNumberName":"U-component_of_CURRENTS"},"data":[0,0,0,0,0,0,0,0,0,0,0,0,0,0,0,0,0,0,0,0,0,0,0,0,0,0,0,0,0,0,0,0,0,0,0,0,0,0,0,0,0,0,0,0,0,0,0,0,0,0,0,0,0,0,0,0,0,0,0.287,0.2871,0,0.2965,0.2966,0.2967,0.2993,0.2992,0.2992,0.2991,0.3028,0.3029,0.303,0,0,0,0,0,0,0,0,0,0,0,0,0,0.2757,0.2759,0.287,0.2871,0.2872,0.2965,0.2966,0.2967,0.2993,0.2992,0.2992,0.2991,0.3027,0.3029,0.303,0,0,0,0,0,0,0,0,0,0,0,0,0,0.2824,0.276,0.2869,0.2897,0.29,0.2964,0.2966,0.2967,0.2993,0.2992,0.2992,0.2991,0.3027,0.3029,0.3031,0.3059,0,0,0.3037,0.3038,0,0,0,0,0,0,0,0,0.282,0.2828,0.2891,0.2895,0.2899,0.2967,0.294,0.2995,0.2993,0.2957,0.2991,0.2991,0.3003,0.3007,0.3026,0.306,0.3062,0.3037,0.3039,0.304,0.304,0,0,0,0,0,0,0,0.2815,0.2824,0.2907,0.2893,0.2897,0.292,0.2928,0.2951,0.2981,0.296,0.2963,0.2974,0.3004,0.3024,0.3027,0.3063,0.3037,0.3039,0.3041,0.3041,0.315,0.3151,0,0,0,0,0,0,0.2804,0.282,0.2904,0.291,0.2857,0.2923,0.2932,0.2945,0.2983,0.2988,0.2975,0.2975,0.3021,0.3025,0.3028,0.3087,0.304,0.3042,0.3043,0.3148,0.315,0.3152,0,0,0,0,0,0,0.2801,0.281,0.29,0.2867,0.288,0.2925,0.294,0.2947,0.297,0.2994,0.2998,0.2989,0.3021,0.3025,0.3065,0.3087,0.3043,0.3045,0.3146,0.3149,0.3151,0.3188,0,0,0,0,0,0,0.2797,0.2809,0.2813,0.2866,0.2882,0.2941,0.2941,0.295,0.2978,0.298,0.3008,0.3011,0.302,0.3062,0.3067,0.3089,0.3046,0.3144,0.3147,0.315,0.3185,0.3192,0.3197,0,0,0,0,0,0.2793,0.28,0.2813,0.2823,0.2886,0.2942,0.2952,0.2981,0.2979,0.2996,0.3022,0.301,0.3084,0.3066,0.3071,0.3094,0.3143,0.3146,0.315,0.3182,0.319,0.3197,0,0,0,0,0,0,0.275,0.2805,0.282,0.2842,0.289,0.2946,0.2965,0.2984,0.302,0.3021,0.3034,0.304,0.3084,0.3087,0.3066,0.3135,0.311,0.3115,0.3133,0.314,0.3146,0.3162,0.3048,0,0,0,0,0,0.2744,0.2762,0.2824,0.284,0.2868,0.2917,0.2942,0.2967,0.3007,0.3022,0.3042,0.3068,0.3105,0.3119,0.3148,0.3185,0.321,0.3204,0.321,0.3215,0.3233,0.329,0.3303,0.3163,0.3163,0.3163,0,0,0.273,0.2762,0.2772,0.2832,0.2872,0.2923,0.293,0.2976,0.3017,0.302,0.3071,0.3092,0.3122,0.317,0.3188,0.3172,0.327,0.3219,0.3223,0.3239,0.3296,0.3309,0.3321,0.3166,0.3165,0.3165,0,0,0.2719,0.2746,0.2767,0.2813,0.2878,0.2921,0.2935,0.2999,0.3028,0.3085,0.31,0.3139,0.3184,0.3217,0.3238,0.3295,0.3303,0.3297,0.3338,0.3393,0.3405,0.3416,0.3471,0.3486,0.3296,0.3296,0.3296,0,0.2701,0.2737,0.2781,0.2823,0.2861,0.2921,0.2965,0.3015,0.308,0.3113,0.3104,0.3201,0.3212,0.3289,0.331,0.331,0.3344,0.3304,0.3401,0.3413,0.3423,0.3476,0.3493,0.3298,0.3298,0.3298,0.3297,0,0.2718,0.2751,0.2771,0.2846,0.2893,0.2941,0.3021,0.3073,0.3112,0.3157,0.3236,0.327,0.3327,0.3334,0.3341,0.3424,0.3426,0.3404,0.338,0.3439,0.3492,0.3508,0.3301,0.3301,0.33,0.3299,0,0,0.268,0.2764,0.2773,0.2815,0.2911,0.296,0.3039,0.3134,0.3198,0.3253,0.333,0.339,0.3409,0.3436,0.3449,0.3493,0.3589,0.3483,0.3485,0.3534,0.3724,0.3699,0.3714,0.3585,0.3588,0.359,0.3732,0,0.2686,0.275,0.2795,0.2874,0.2927,0.3008,0.3082,0.3173,0.3247,0.3337,0.3392,0.3464,0.3449,0.3481,0.353,0.3582,0.3634,0.3553,0.3663,0.3667,0.3634,0.3733,0.3678,0.3798,0.3748,0.3751,0.3753,0,0.2703,0.2745,0.2805,0.291,0.2942,0.2996,0.3136,0.3212,0.3349,0.3401,0.3486,0.3535,0.3632,0.3594,0.3728,0.368,0.3713,0.374,0.3746,0.3723,0.3673,0.3731,0.383,0.3815,0.3778,0.3776,0.3775,0,0.268,0.2765,0.2807,0.2842,0.2964,0.3013,0.3091,0.3227,0.3312,0.3448,0.3528,0.3627,0.3709,0.3764,0.3836,0.3792,0.3978,0.3914,0.3926,0.3924,0.3901,0.3892,0.3995,0.4009,0.4009,0.4008,0.4008,0,0.269,0.2736,0.2798,0.2833,0.2909,0.3001,0.3104,0.3202,0.3345,0.345,0.356,0.3663,0.3759,0.3875,0.3894,0.3988,0.403,0.3971,0.3973,0.3912,0.3903,0.3903,0.3869,0.4013,0.4012,0.4011,0.401,0,0.2688,0.272,0.2781,0.2873,0.2902,0.2967,0.3108,0.3188,0.3336,0.3482,0.3533,0.3733,0.3878,0.3976,0.4089,0.4082,0.4063,0.4157,0.4082,0.4072,0.4017,0.3986,0.3869,0.3744,0.4187,0.4187,0.4187,0,0.2698,0.2721,0.279,0.2813,0.2855,0.2946,0.301,0.316,0.3249,0.3512,0.3583,0.3796,0.3917,0.4114,0.4152,0.4221,0.4098,0.4193,0.4081,0.4047,0.4015,0.3788,0.3672,0.4074,0.4073,0.4073,0.4072,0,0.271,0.272,0.2753,0.2796,0.2843,0.2918,0.3023,0.3082,0.3268,0.341,0.3599,0.3724,0.396,0.4036,0.4164,0.418,0.4032,0.4181,0.4178,0.3976,0.3706,0.3576,0.3947,0.4068,0.4068,0.4069,0.4069,0.4069,0.2694,0.2708,0.2723,0.2771,0.2813,0.2867,0.2891,0.3008,0.3131,0.3303,0.3488,0.3658,0.3919,0.4092,0.4075,0.412,0.398,0.4071,0.4053,0.3837,0.3657,0.4016,0.4106,0.4107,0.4108,0.4108,0.4109,0,0.2654,0.2667,0.2702,0.2723,0.2733,0.2798,0.2874,0.2871,0.294,0.3181,0.3319,0.3628,0.378,0.3956,0.4145,0.4067,0.3795,0.399,0.3703,0.3604,0.4006,0.3947,0.3967,0.3967,0.3967,0.3967,0.3967,0.3967,0.2622,0.262,0.2641,0.2625,0.2641,0.2616,0.2628,0.2643,0.2773,0.2949,0.3156,0.3346,0.381,0.4152,0.4208,0.4092,0.3782,0.3624,0.3535,0.3926,0.3932,0.3937,0.3877,0.3882,0.3882,0.2996,0.299,0.2986]},{"header":{"parameterUnit":"m.s-1","parameterCategory":2,"la1":30.2991,"la2":30.254,"lo1":-89.0895,"lo2":-89.0444,"dy":0.0017,"dx":0.0017,"nx":28,"ny":28,"refTime":"2024-03-23T03:00:00:Z","depth":"0","parameterNumber":3,"parameterNumberName":"V-component_of_CURRENTS"},"data":[0,0,0,0,0,0,0,0,0,0,0,0,0,0,0,0,0,0,0,0,0,0,0,0,0,0,0,0,0,0,0,0,0,0,0,0,0,0,0,0,0,0,0,0,0,0,0,0,0,0,0,0,0,0,0,0,0,0,-0.0063,-0.0064,0,-0.0184,-0.0186,-0.0188,-0.0275,-0.0276,-0.0276,-0.0276,-0.0445,-0.0449,-0.0453,0,0,0,0,0,0,0,0,0,0,0,0,0,-0.0035,-0.0034,-0.0062,-0.0064,-0.0065,-0.0184,-0.0186,-0.0188,-0.0275,-0.0276,-0.0276,-0.0277,-0.0443,-0.0448,-0.0453,0,0,0,0,0,0,0,0,0,0,0,0,0,-0.0094,-0.0034,-0.0062,-0.012,-0.0126,-0.0184,-0.0186,-0.0189,-0.0275,-0.0276,-0.0276,-0.0277,-0.0442,-0.0448,-0.0454,-0.048,0,0,-0.0473,-0.0475,0,0,0,0,0,0,0,0,-0.009,-0.0095,-0.011,-0.0116,-0.0123,-0.0212,-0.0238,-0.0287,-0.0275,-0.0222,-0.0276,-0.0277,-0.0368,-0.038,-0.0407,-0.0488,-0.0495,-0.0473,-0.0477,-0.048,-0.0481,0,0,0,0,0,0,0,-0.0086,-0.0091,-0.0114,-0.0111,-0.0119,-0.0184,-0.0192,-0.0248,-0.0294,-0.0227,-0.0233,-0.024,-0.0373,-0.04,-0.0411,-0.0498,-0.0473,-0.0478,-0.0482,-0.0485,-0.0607,-0.0607,0,0,0,0,0,0,-0.0056,-0.0086,-0.0111,-0.0118,-0.0104,-0.0183,-0.0193,-0.0186,-0.0293,-0.0308,-0.024,-0.0244,-0.039,-0.0404,-0.0418,-0.045,-0.0479,-0.0485,-0.0489,-0.0608,-0.0607,-0.0607,0,0,0,0,0,0,-0.0054,-0.0056,-0.0106,-0.0103,-0.0114,-0.0182,-0.0174,-0.0188,-0.0212,-0.0301,-0.0319,-0.0248,-0.0391,-0.0409,-0.0461,-0.0458,-0.0488,-0.0494,-0.0608,-0.0608,-0.0607,-0.052,0,0,0,0,0,0,-0.0053,-0.0055,-0.0043,-0.01,-0.0112,-0.0126,-0.0174,-0.019,-0.0214,-0.022,-0.0314,-0.0331,-0.0393,-0.0452,-0.0467,-0.0467,-0.0499,-0.0609,-0.0608,-0.0607,-0.0523,-0.0516,-0.051,0,0,0,0,0,-0.0051,-0.0024,-0.0041,-0.0044,-0.0092,-0.0125,-0.0137,-0.0192,-0.0213,-0.0217,-0.0282,-0.0328,-0.0458,-0.0456,-0.0475,-0.0476,-0.0609,-0.0608,-0.0607,-0.0526,-0.0517,-0.051,0,0,0,0,0,0,-0.0005,-0.0032,-0.0052,-0.0034,-0.0071,-0.0138,-0.0143,-0.018,-0.0234,-0.024,-0.0327,-0.0348,-0.0393,-0.0442,-0.0438,-0.0507,-0.0539,-0.0542,-0.0471,-0.0464,-0.0457,-0.0424,-0.0504,0,0,0,0,0,0.0014,0.0026,-0.0018,-0.0004,-0.0015,-0.0077,-0.0098,-0.0133,-0.0186,-0.0211,-0.0276,-0.0344,-0.0404,-0.0437,-0.0496,-0.0534,-0.0567,-0.0545,-0.0539,-0.0533,-0.0518,-0.0567,-0.0563,-0.0603,-0.0603,-0.0603,0,0,0.0035,0.0022,0.0028,0.0006,-0.0027,-0.0036,-0.0091,-0.0109,-0.0123,-0.022,-0.0256,-0.0323,-0.0408,-0.0453,-0.0477,-0.0494,-0.0536,-0.0531,-0.0526,-0.0514,-0.0566,-0.0562,-0.0558,-0.0603,-0.0603,-0.0603,0,0,0.0084,0.0076,0.0099,0.0077,0.0043,0.0003,0.0006,-0.0053,-0.0084,-0.0125,-0.0199,-0.026,-0.0347,-0.0412,-0.0455,-0.0445,-0.0499,-0.0461,-0.0407,-0.0455,-0.0452,-0.0449,-0.0472,-0.0473,-0.0459,-0.0459,-0.0459,0,0.0107,0.0133,0.0098,0.0109,0.01,0.003,0.0044,0.0002,-0.007,-0.0087,-0.012,-0.0249,-0.0328,-0.0388,-0.0391,-0.0432,-0.0453,-0.0431,-0.0445,-0.0444,-0.0443,-0.0467,-0.0469,-0.0455,-0.0455,-0.0456,-0.0456,0,0.0166,0.0183,0.0196,0.0188,0.0172,0.0175,0.012,0.0099,0.0054,0.0003,-0.0055,-0.0164,-0.0237,-0.0278,-0.0338,-0.0372,-0.0386,-0.0429,-0.0461,-0.0433,-0.0461,-0.0464,-0.0449,-0.045,-0.0451,-0.0453,0,0,0.0218,0.0237,0.0238,0.0254,0.0218,0.0213,0.0202,0.0168,0.017,0.0082,0.0076,-0.0057,-0.0112,-0.0164,-0.025,-0.0303,-0.033,-0.0354,-0.0358,-0.0367,-0.0408,-0.0415,-0.042,-0.037,-0.0371,-0.0371,-0.0424,0,0.0268,0.0325,0.031,0.0346,0.0367,0.0316,0.0319,0.0278,0.0226,0.0201,0.0085,0.0037,-0.0069,-0.01,-0.0171,-0.0288,-0.0335,-0.0309,-0.0441,-0.0444,-0.0448,-0.0424,-0.0411,-0.0457,-0.0428,-0.0428,-0.0429,0,0.0321,0.0353,0.0416,0.0443,0.0449,0.0461,0.0458,0.0446,0.0387,0.0348,0.0273,0.0188,0.0088,0.0002,-0.0176,-0.0149,-0.0262,-0.0357,-0.0362,-0.04,-0.0458,-0.0485,-0.0465,-0.0693,-0.0434,-0.0434,-0.0434,0,0.0376,0.042,0.0481,0.0487,0.0507,0.0532,0.0534,0.0497,0.0511,0.0443,0.0452,0.0307,0.0259,0.009,-0.0114,-0.0139,-0.0291,-0.0356,-0.0467,-0.0468,-0.0499,-0.0502,-0.0708,-0.0466,-0.0466,-0.0465,-0.0465,0,0.0431,0.0472,0.052,0.0551,0.0631,0.0611,0.0674,0.0651,0.0645,0.0688,0.0539,0.0547,0.0282,0.0159,-0.0048,-0.0253,-0.0244,-0.0441,-0.0482,-0.0466,-0.0466,-0.07,-0.0833,-0.0467,-0.0467,-0.0467,-0.0466,0,0.0475,0.0505,0.0578,0.0635,0.0664,0.0718,0.0785,0.0827,0.0805,0.0863,0.0857,0.0734,0.0572,0.0312,0.0046,-0.0145,-0.0491,-0.0436,-0.0385,-0.0419,-0.0741,-0.0867,-0.1094,-0.1213,-0.0563,-0.0563,-0.0564,0,0.0504,0.0551,0.0652,0.0714,0.0748,0.0828,0.0896,0.0904,0.0963,0.0989,0.1039,0.0912,0.0843,0.0454,0.0079,-0.0265,-0.05,-0.0472,-0.0537,-0.0744,-0.0916,-0.1004,-0.1095,-0.0541,-0.0541,-0.0541,-0.0541,0,0.0556,0.0597,0.0666,0.0806,0.0898,0.1002,0.1103,0.1182,0.1218,0.1278,0.1337,0.1291,0.0924,0.0582,0.0108,-0.0157,-0.0638,-0.0485,-0.0728,-0.0931,-0.1014,-0.1151,-0.0508,-0.0543,-0.0543,-0.0543,-0.0543,-0.0543,0.0599,0.0665,0.0776,0.091,0.1024,0.1179,0.1288,0.1397,0.1531,0.165,0.1583,0.158,0.107,0.0416,0.0023,-0.065,-0.0675,-0.0854,-0.099,-0.1059,-0.1182,-0.0523,-0.0591,-0.0591,-0.0591,-0.0591,-0.0591,0,0.066,0.0748,0.0872,0.1047,0.1195,0.1241,0.1435,0.1556,0.1741,0.1845,0.1892,0.1685,0.1039,0.0388,-0.0515,-0.1034,-0.1249,-0.1334,-0.1481,-0.1554,-0.0988,-0.0996,-0.112,-0.112,-0.112,-0.112,-0.1119,-0.1119,0.0697,0.0836,0.0913,0.1175,0.1299,0.1513,0.1638,0.1808,0.1941,0.2101,0.2143,0.2118,0.167,-0.0049,-0.1241,-0.1551,-0.1913,-0.1996,-0.2195,-0.1837,-0.1803,-0.1771,-0.1811,-0.2104,-0.2105,-0.2694,-0.27,-0.2704]}],[{"header":{"parameterUnit":"m.s-1","parameterCategory":2,"la1":30.2991,"la2":30.254,"lo1":-89.0895,"lo2":-89.0444,"dy":0.0017,"dx":0.0017,"nx":28,"ny":28,"refTime":"2024-03-23T03:00:00:Z","depth":"2","parameterNumber":2,"parameterNumberName":"U-component_of_CURRENTS"},"data":[0,0,0,0,0,0,0,0,0,0,0,0,0,0,0,0,0,0,0,0,0,0,0,0,0,0,0,0,0,0,0,0,0,0,0,0,0,0,0,0,0,0,0,0,0,0,0,0,0,0,0,0,0,0,0,0,0,0,0.2657,0.2658,0,0.2763,0.2765,0.2766,0.2794,0.2794,0.2793,0.2793,0.2828,0.2829,0.2831,0,0,0,0,0,0,0,0,0,0,0,0,0,0.2552,0.2554,0.2657,0.2658,0.266,0.2763,0.2765,0.2766,0.2794,0.2794,0.2793,0.2792,0.2827,0.2829,0.2831,0,0,0,0,0,0,0,0,0,0,0,0,0,0.2621,0.2554,0.2657,0.2687,0.2691,0.2763,0.2765,0.2766,0.2795,0.2794,0.2793,0.2792,0.2827,0.2829,0.2831,0.2862,0,0,0.2838,0.2839,0,0,0,0,0,0,0,0,0.2617,0.2625,0.2681,0.2685,0.2689,0.2765,0.2741,0.2795,0.2795,0.2755,0.2793,0.2792,0.2801,0.2805,0.2828,0.2864,0.2865,0.2838,0.2839,0.284,0.2841,0,0,0,0,0,0,0,0.2612,0.2621,0.2699,0.2683,0.2688,0.272,0.2728,0.2752,0.278,0.2758,0.2761,0.2773,0.2803,0.2826,0.2829,0.2866,0.2838,0.284,0.2841,0.2842,0.2955,0.2957,0,0,0,0,0,0,0.2598,0.2616,0.2695,0.2702,0.2651,0.2723,0.2732,0.2741,0.2781,0.2787,0.2774,0.2774,0.2822,0.2826,0.283,0.2892,0.284,0.2842,0.2844,0.2954,0.2956,0.2958,0,0,0,0,0,0,0.2595,0.2604,0.2691,0.2662,0.2675,0.2725,0.2736,0.2744,0.2777,0.2794,0.2798,0.2799,0.2822,0.2827,0.2861,0.2892,0.2843,0.2845,0.2952,0.2954,0.2957,0.3002,0,0,0,0,0,0,0.2592,0.2602,0.261,0.2661,0.2677,0.2734,0.2737,0.2747,0.2785,0.2787,0.2817,0.2819,0.2821,0.2858,0.2863,0.2895,0.2847,0.295,0.2953,0.2956,0.2998,0.3006,0.3012,0,0,0,0,0,0.2587,0.2597,0.2609,0.2619,0.2683,0.2735,0.2747,0.2778,0.2787,0.2804,0.2828,0.2819,0.2882,0.2861,0.2867,0.29,0.2948,0.2952,0.2956,0.2995,0.3004,0.3012,0,0,0,0,0,0,0.2552,0.2602,0.2617,0.264,0.2685,0.274,0.2764,0.2788,0.2825,0.2828,0.284,0.2845,0.2887,0.289,0.2867,0.2943,0.2914,0.2919,0.2942,0.2951,0.2957,0.2967,0.2849,0,0,0,0,0,0.2549,0.2569,0.2623,0.2642,0.2668,0.2721,0.2749,0.2774,0.2811,0.2828,0.285,0.2876,0.2909,0.2925,0.2948,0.299,0.301,0.3016,0.3023,0.3028,0.3042,0.3097,0.311,0.297,0.297,0.297,0,0,0.2539,0.257,0.2581,0.2636,0.2677,0.2724,0.2736,0.2783,0.2823,0.2825,0.288,0.29,0.2925,0.2972,0.2992,0.2978,0.3081,0.3033,0.3038,0.3048,0.3102,0.3116,0.3128,0.2973,0.2972,0.2972,0,0,0.2535,0.2562,0.2584,0.2627,0.2689,0.2729,0.2745,0.281,0.284,0.2896,0.291,0.2949,0.2996,0.3024,0.3044,0.3104,0.3113,0.3113,0.3158,0.3212,0.3224,0.3234,0.3283,0.3297,0.3118,0.3118,0.3118,0,0.2524,0.2557,0.2598,0.2638,0.2675,0.2733,0.2773,0.2823,0.2887,0.2922,0.2914,0.3014,0.3024,0.3098,0.3119,0.312,0.3153,0.3122,0.3221,0.3231,0.3242,0.3289,0.3304,0.312,0.312,0.312,0.312,0,0.2544,0.2575,0.2596,0.2664,0.271,0.2754,0.2826,0.2879,0.2923,0.297,0.305,0.3078,0.314,0.3149,0.3154,0.3239,0.324,0.322,0.3197,0.3258,0.3304,0.332,0.3124,0.3123,0.3123,0.3122,0,0,0.2513,0.2592,0.26,0.2639,0.2727,0.2772,0.2848,0.2937,0.3005,0.306,0.3141,0.3198,0.3226,0.3251,0.3267,0.3309,0.3403,0.3302,0.3304,0.3347,0.3532,0.3489,0.3502,0.3405,0.3408,0.341,0.3537,0,0.2521,0.2582,0.2622,0.2695,0.2743,0.2818,0.2891,0.2978,0.3053,0.3145,0.3198,0.3273,0.3264,0.3302,0.335,0.3396,0.3446,0.3371,0.347,0.3474,0.3424,0.3519,0.3259,0.3347,0.3552,0.3555,0.3557,0,0.2537,0.2577,0.2634,0.273,0.276,0.2812,0.2948,0.3022,0.3158,0.3214,0.3304,0.3353,0.3449,0.3413,0.3542,0.35,0.3529,0.3547,0.3552,0.3508,0.3459,0.3319,0.3367,0.3582,0.358,0.3578,0.3577,0,0.2515,0.2593,0.2634,0.2667,0.2781,0.2829,0.2906,0.3043,0.3126,0.3266,0.3347,0.345,0.3529,0.3581,0.3645,0.3606,0.377,0.3714,0.3702,0.3699,0.3495,0.3469,0.3798,0.3798,0.3797,0.3797,0.3797,0,0.2521,0.2563,0.2628,0.2659,0.2736,0.2823,0.2928,0.3027,0.3169,0.3272,0.3387,0.3482,0.3578,0.3683,0.3698,0.3773,0.3824,0.3741,0.3741,0.3504,0.3479,0.3686,0.3672,0.3802,0.3801,0.38,0.3799,0,0.2515,0.2548,0.2607,0.2698,0.2729,0.2795,0.2933,0.3015,0.3165,0.3306,0.3356,0.3545,0.3679,0.3772,0.3871,0.3857,0.3904,0.3906,0.3627,0.3592,0.378,0.3766,0.3909,0.3909,0.3909,0.3909,0.3909,0,0.2524,0.2545,0.2618,0.2644,0.2686,0.2779,0.2846,0.2994,0.308,0.3327,0.339,0.3587,0.3696,0.3866,0.3868,0.3921,0.3945,0.3691,0.3559,0.3812,0.3798,0.3784,0.3771,0.3308,0.3303,0.3299,0.3295,0,0.253,0.2543,0.2577,0.2629,0.2682,0.2755,0.2859,0.2911,0.309,0.3223,0.339,0.3499,0.369,0.3639,0.3734,0.3707,0.366,0.361,0.3969,0.3321,0.3256,0.3238,0.3243,0.3259,0.3263,0.3265,0.3267,0.3269,0.2517,0.2531,0.2551,0.2608,0.2657,0.2707,0.2725,0.2833,0.2942,0.3079,0.3246,0.3325,0.3409,0.3421,0.3349,0.3304,0.3533,0.3369,0.3377,0.339,0.3299,0.3237,0.322,0.3223,0.3226,0.3229,0.3231,0,0.2473,0.2493,0.2533,0.2562,0.2573,0.2646,0.2709,0.2684,0.2735,0.2904,0.3009,0.2838,0.2866,0.2936,0.2835,0.2867,0.2782,0.2735,0.2596,0.2639,0.2676,0.2541,0.2264,0.226,0.2257,0.2253,0,0,0.244,0.244,0.2459,0.2454,0.2483,0.2451,0.2456,0.2437,0.25,0.2495,0.2527,0.2754,0.2897,0.2535,0.252,0.2376,0.247,0.2287,0.3082,0.2966,0.2996,0.3086,0.2935,0,0,0,0,0]},{"header":{"parameterUnit":"m.s-1","parameterCategory":2,"la1":30.2991,"la2":30.254,"lo1":-89.0895,"lo2":-89.0444,"dy":0.0017,"dx":0.0017,"nx":28,"ny":28,"refTime":"2024-03-23T03:00:00:Z","depth":"2","parameterNumber":3,"parameterNumberName":"V-component_of_CURRENTS"},"data":[0,0,0,0,0,0,0,0,0,0,0,0,0,0,0,0,0,0,0,0,0,0,0,0,0,0,0,0,0,0,0,0,0,0,0,0,0,0,0,0,0,0,0,0,0,0,0,0,0,0,0,0,0,0,0,0,0,0,0.005,0.0049,0,-0.0069,-0.0071,-0.0073,-0.0157,-0.0157,-0.0157,-0.0158,-0.0316,-0.032,-0.0323,0,0,0,0,0,0,0,0,0,0,0,0,0,0.0077,0.0077,0.005,0.0049,0.0048,-0.0069,-0.0071,-0.0073,-0.0157,-0.0157,-0.0157,-0.0158,-0.0315,-0.0319,-0.0324,0,0,0,0,0,0,0,0,0,0,0,0,0,0.0019,0.0077,0.0051,-0.0005,-0.0011,-0.0069,-0.0071,-0.0074,-0.0157,-0.0157,-0.0157,-0.0158,-0.0313,-0.0319,-0.0324,-0.0351,0,0,-0.0342,-0.0345,0,0,0,0,0,0,0,0,0.0023,0.0018,0.0004,-0.0001,-0.0008,-0.0095,-0.012,-0.0167,-0.0156,-0.0105,-0.0158,-0.0158,-0.0243,-0.0255,-0.0281,-0.0358,-0.0365,-0.0343,-0.0346,-0.0349,-0.0351,0,0,0,0,0,0,0,0.0027,0.0022,-0.0001,0.0003,-0.0004,-0.0068,-0.0076,-0.013,-0.0173,-0.011,-0.0115,-0.0122,-0.0247,-0.0275,-0.0285,-0.0368,-0.0343,-0.0348,-0.0352,-0.0354,-0.0474,-0.0474,0,0,0,0,0,0,0.0057,0.0027,0.0003,-0.0004,0.001,-0.0068,-0.0077,-0.007,-0.0172,-0.0187,-0.0122,-0.0126,-0.0265,-0.0278,-0.0291,-0.0323,-0.0349,-0.0354,-0.0358,-0.0474,-0.0474,-0.0473,0,0,0,0,0,0,0.0058,0.0056,0.0008,0.001,0.0,-0.0066,-0.0059,-0.0072,-0.0098,-0.018,-0.0197,-0.0134,-0.0265,-0.0283,-0.0329,-0.033,-0.0357,-0.0362,-0.0475,-0.0474,-0.0474,-0.039,0,0,0,0,0,0,0.0059,0.0058,0.0067,0.0013,0.0001,-0.0012,-0.0058,-0.0074,-0.01,-0.0107,-0.0196,-0.0211,-0.0267,-0.032,-0.0335,-0.0338,-0.0367,-0.0475,-0.0474,-0.0474,-0.0394,-0.0387,-0.0382,0,0,0,0,0,0.0061,0.0084,0.0069,0.0065,0.0019,-0.0011,-0.0023,-0.0076,-0.01,-0.0103,-0.0163,-0.0209,-0.0327,-0.0324,-0.0342,-0.0347,-0.0475,-0.0475,-0.0474,-0.0396,-0.0388,-0.0382,0,0,0,0,0,0,0.0101,0.0077,0.0058,0.0073,0.004,-0.0023,-0.003,-0.0067,-0.0118,-0.0125,-0.0206,-0.0225,-0.0267,-0.0314,-0.0309,-0.0379,-0.0408,-0.0411,-0.0343,-0.0337,-0.0331,-0.0298,-0.0372,0,0,0,0,0,0.0117,0.0127,0.0089,0.0099,0.009,0.003,0.0009,-0.0023,-0.0073,-0.0097,-0.0158,-0.0223,-0.0278,-0.0311,-0.0364,-0.0403,-0.0437,-0.0417,-0.0411,-0.0405,-0.039,-0.0442,-0.0439,-0.0471,-0.0471,-0.0471,0,0,0.0134,0.0123,0.0127,0.0108,0.0077,0.007,0.0016,-0.0002,-0.0013,-0.0105,-0.0139,-0.0203,-0.0282,-0.0324,-0.0348,-0.0365,-0.0412,-0.0404,-0.0399,-0.0387,-0.0441,-0.0438,-0.0435,-0.047,-0.0471,-0.0471,0,0,0.0177,0.0168,0.0189,0.017,0.0139,0.0103,0.0105,0.005,0.0022,-0.0017,-0.0086,-0.0144,-0.0227,-0.0286,-0.0327,-0.0319,-0.0376,-0.0338,-0.0288,-0.0339,-0.0336,-0.0335,-0.0363,-0.0364,-0.0339,-0.0339,-0.0338,0,0.0196,0.0221,0.0188,0.02,0.0193,0.0128,0.0142,0.0104,0.0038,0.0021,-0.0011,-0.0135,-0.0208,-0.0264,-0.0267,-0.0306,-0.0332,-0.0309,-0.033,-0.0329,-0.0329,-0.0358,-0.0361,-0.0334,-0.0335,-0.0335,-0.0336,0,0.025,0.0266,0.0279,0.0275,0.0261,0.0264,0.0217,0.0197,0.0152,0.0105,0.0049,-0.0052,-0.0123,-0.0163,-0.0218,-0.0254,-0.0272,-0.0312,-0.0344,-0.032,-0.0353,-0.0357,-0.0329,-0.033,-0.0331,-0.0332,0,0,0.0294,0.0315,0.0317,0.0334,0.0303,0.0301,0.0292,0.0264,0.0264,0.0181,0.0172,0.0051,-0.0006,-0.0055,-0.0137,-0.0191,-0.0223,-0.0243,-0.0248,-0.0261,-0.0314,-0.0324,-0.033,-0.0266,-0.0266,-0.0267,-0.0333,0,0.0342,0.0397,0.0386,0.0423,0.0445,0.0399,0.0404,0.0367,0.0318,0.0292,0.0183,0.0136,0.0035,0.0004,-0.0067,-0.0182,-0.0232,-0.02,-0.0342,-0.0345,-0.0351,-0.0335,-0.0307,-0.0364,-0.0337,-0.0338,-0.0339,0,0.0392,0.0424,0.0485,0.0516,0.0522,0.0535,0.0534,0.0526,0.0468,0.043,0.0354,0.0273,0.0175,0.0095,-0.0084,-0.0056,-0.017,-0.0262,-0.0268,-0.0307,-0.0364,-0.0387,-0.0373,-0.0347,-0.0346,-0.0345,-0.0345,0,0.0442,0.0488,0.0547,0.0555,0.0578,0.0602,0.0606,0.0571,0.0585,0.0518,0.0523,0.0381,0.0331,0.0164,-0.0036,-0.0057,-0.0215,-0.0275,-0.0389,-0.0391,-0.0409,-0.0411,-0.0387,-0.0387,-0.0387,-0.0387,-0.0387,0,0.0496,0.0537,0.0584,0.0615,0.0693,0.0676,0.0737,0.0715,0.0708,0.0745,0.0603,0.0603,0.0348,0.0224,0.0022,-0.0185,-0.0177,-0.0367,-0.0408,-0.0378,-0.0377,-0.0401,-0.0401,-0.0389,-0.0389,-0.0388,-0.0388,0,0.0539,0.0568,0.064,0.0696,0.0725,0.0777,0.0843,0.0883,0.0859,0.0909,0.0902,0.0775,0.0607,0.0358,0.0094,-0.009,-0.0303,-0.0379,-0.0313,-0.0346,-0.0457,-0.0453,-0.051,-0.0511,-0.0512,-0.0513,-0.0513,0,0.0568,0.0614,0.0711,0.0771,0.0805,0.0883,0.0948,0.0956,0.1011,0.1022,0.1067,0.0931,0.0851,0.0463,0.0105,-0.023,-0.0286,-0.0415,-0.0466,-0.0435,-0.047,-0.0464,-0.0459,-0.0457,-0.0457,-0.0457,-0.0457,0,0.0622,0.066,0.0726,0.086,0.0949,0.105,0.1147,0.1219,0.1248,0.1294,0.1331,0.1273,0.0909,0.0566,0.0107,-0.013,-0.0365,-0.0426,-0.0414,-0.0425,-0.0389,-0.0422,-0.0418,-0.0457,-0.0457,-0.0457,-0.0457,-0.0457,0.0665,0.0729,0.0833,0.0961,0.1071,0.1218,0.1319,0.1416,0.1532,0.1611,0.1539,0.146,0.1066,0.0476,0.0068,-0.0363,-0.0356,-0.0506,-0.0504,-0.0502,-0.048,-0.0447,-0.052,-0.052,-0.0521,-0.0521,-0.0521,0,0.0727,0.0808,0.0927,0.1093,0.1233,0.1279,0.1458,0.1556,0.171,0.1748,0.1761,0.1407,0.1008,0.0557,-0.0074,-0.0449,-0.0494,-0.0569,-0.0538,-0.0534,-0.0532,-0.0511,-0.056,-0.0561,-0.0562,-0.0563,0,0,0.0763,0.0894,0.0967,0.1214,0.1332,0.1531,0.1645,0.177,0.1842,0.1883,0.1829,0.1695,0.1154,0.0701,0.0175,-0.0186,-0.0275,-0.0266,-0.0196,-0.0094,-0.0086,-0.0459,-0.0417,0,0,0,0,0]}],[{"header":{"parameterUnit":"m.s-1","parameterCategory":2,"la1":30.2991,"la2":30.254,"lo1":-89.0895,"lo2":-89.0444,"dy":0.0017,"dx":0.0017,"nx":28,"ny":28,"refTime":"2024-03-23T03:00:00:Z","depth":"4","parameterNumber":2,"parameterNumberName":"U-component_of_CURRENTS"},"data":[0,0,0,0,0,0,0,0,0,0,0,0,0,0,0,0,0,0,0,0,0,0,0,0,0,0,0,0,0,0,0,0,0,0,0,0,0,0,0,0,0,0,0,0,0,0,0,0,0,0,0,0,0,0,0,0,0,0,0.1544,0.1545,0,0.1578,0.1578,0.1578,0.1633,0.1635,0.1636,0.1637,0.1722,0.1723,0.1724,0,0,0,0,0,0,0,0,0,0,0,0,0,0.143,0.1432,0.1544,0.1545,0.1546,0.1578,0.1578,0.1578,0.1633,0.1635,0.1636,0.1638,0.1722,0.1723,0.1724,0,0,0,0,0,0,0,0,0,0,0,0,0,0.1469,0.1433,0.1544,0.158,0.1584,0.1578,0.1578,0.1578,0.1632,0.1635,0.1637,0.1639,0.1721,0.1723,0.1724,0.169,0,0,0.1728,0.1729,0,0,0,0,0,0,0,0,0.1467,0.1473,0.1574,0.1578,0.1582,0.1608,0.1569,0.162,0.1632,0.1609,0.1637,0.164,0.169,0.1694,0.1688,0.1693,0.1697,0.1728,0.1729,0.173,0.173,0,0,0,0,0,0,0,0.1464,0.1471,0.1553,0.1575,0.158,0.1562,0.1571,0.1578,0.1634,0.1611,0.1617,0.1627,0.1692,0.1687,0.1691,0.1698,0.1728,0.1729,0.173,0.1731,0.1832,0.1834,0,0,0,0,0,0,0.1472,0.1469,0.1552,0.1554,0.1534,0.1563,0.1572,0.1594,0.1633,0.1643,0.1625,0.163,0.1683,0.1689,0.1694,0.1795,0.173,0.1731,0.1732,0.1831,0.1833,0.1835,0,0,0,0,0,0,0.147,0.148,0.1551,0.1515,0.1524,0.1564,0.1587,0.1593,0.1628,0.1644,0.1654,0.166,0.1685,0.1692,0.1744,0.1793,0.1732,0.1733,0.1828,0.1831,0.1834,0.1907,0,0,0,0,0,0,0.1467,0.1479,0.1516,0.1516,0.1526,0.1582,0.1585,0.1593,0.1631,0.1638,0.1676,0.1683,0.1687,0.1742,0.1746,0.1794,0.1734,0.1826,0.183,0.1833,0.1902,0.1912,0.192,0,0,0,0,0,0.1462,0.1507,0.1517,0.1528,0.157,0.1584,0.1587,0.1618,0.1631,0.1655,0.1685,0.1684,0.1768,0.1744,0.1748,0.1798,0.1824,0.1829,0.1833,0.1898,0.191,0.192,0,0,0,0,0,0,0.1478,0.1516,0.1528,0.1584,0.1597,0.1596,0.163,0.1634,0.1671,0.1693,0.1699,0.1709,0.178,0.1772,0.1746,0.1839,0.1799,0.1804,0.1848,0.1859,0.1868,0.185,0.1735,0,0,0,0,0,0.1496,0.1543,0.1557,0.1603,0.1617,0.1624,0.1641,0.1656,0.1678,0.1697,0.1724,0.1756,0.1789,0.1812,0.184,0.1876,0.188,0.1914,0.1923,0.1931,0.192,0.197,0.1982,0.1849,0.1849,0.1849,0,0,0.1513,0.1543,0.1569,0.1611,0.1626,0.1644,0.164,0.1679,0.1703,0.17,0.1764,0.1793,0.1808,0.1865,0.1895,0.1871,0.1977,0.1936,0.1942,0.1927,0.1975,0.1988,0.2,0.1852,0.1851,0.1851,0,0,0.1545,0.1598,0.1634,0.1652,0.1688,0.1692,0.171,0.1731,0.1761,0.1805,0.1823,0.1875,0.1918,0.1941,0.1953,0.2021,0.2028,0.2047,0.2073,0.2123,0.2134,0.2144,0.2188,0.2201,0.2045,0.2045,0.2046,0,0.1563,0.161,0.1644,0.1672,0.1696,0.1716,0.174,0.1763,0.1803,0.1832,0.1846,0.1933,0.1948,0.2007,0.2034,0.2042,0.2071,0.2031,0.2135,0.2144,0.2153,0.2195,0.2209,0.2049,0.2049,0.2049,0.2048,0,0.1595,0.1646,0.1671,0.1716,0.1745,0.1776,0.1804,0.185,0.1888,0.1906,0.1993,0.202,0.2073,0.2092,0.2079,0.2156,0.216,0.2146,0.2104,0.217,0.2212,0.2224,0.2055,0.2054,0.2053,0.2052,0,0,0.1591,0.1677,0.1688,0.1719,0.1774,0.1795,0.1854,0.1901,0.1946,0.2006,0.207,0.2124,0.2155,0.2169,0.2185,0.221,0.23,0.2205,0.2206,0.2244,0.2422,0.2304,0.2306,0.2316,0.2318,0.232,0.2435,0,0.1602,0.1666,0.1706,0.1767,0.1798,0.1847,0.1893,0.1947,0.2001,0.2074,0.2124,0.2199,0.2182,0.2232,0.2259,0.2297,0.2333,0.227,0.2355,0.2357,0.224,0.2316,0.2327,0.2444,0.2447,0.2449,0.245,0,0.1603,0.1654,0.1716,0.1799,0.1819,0.1865,0.1955,0.2002,0.2096,0.2144,0.2227,0.2273,0.2352,0.2323,0.2418,0.2389,0.2409,0.2419,0.2425,0.2288,0.226,0.2359,0.2472,0.247,0.2469,0.2467,0.2466,0,0.1565,0.1656,0.1714,0.1741,0.1834,0.1889,0.1949,0.2036,0.2092,0.2215,0.2284,0.2368,0.2457,0.2485,0.2524,0.2491,0.2612,0.2573,0.2485,0.2478,0.2517,0.2505,0.2631,0.2631,0.263,0.263,0.263,0,0.1538,0.1584,0.1716,0.1743,0.1817,0.1898,0.1985,0.2049,0.2168,0.2243,0.2339,0.242,0.2505,0.2583,0.2575,0.2579,0.2671,0.2497,0.25,0.2548,0.2539,0.2527,0.2513,0.2634,0.2633,0.2632,0.2632,0,0.1456,0.1547,0.1618,0.175,0.1798,0.1856,0.2003,0.2055,0.2191,0.2304,0.2362,0.251,0.2614,0.2672,0.2741,0.2658,0.2657,0.2635,0.2707,0.2711,0.2475,0.2464,0.2537,0.2534,0.2531,0.2529,0.2527,0,0.1406,0.144,0.1603,0.1655,0.1722,0.1833,0.1895,0.2044,0.2109,0.2336,0.238,0.256,0.2636,0.2647,0.2706,0.2706,0.2664,0.2644,0.2514,0.247,0.2467,0.246,0.2453,0.2522,0.2522,0.2521,0.252,0,0.13,0.1383,0.1448,0.1564,0.1657,0.1736,0.1859,0.1906,0.2086,0.2236,0.2349,0.2414,0.254,0.2578,0.2615,0.2596,0.2635,0.2614,0.2617,0.2496,0.2453,0.2451,0.2448,0.2511,0.2512,0.2513,0.2514,0,0.1223,0.1247,0.1363,0.1451,0.1553,0.1617,0.17,0.1806,0.1901,0.2156,0.2196,0.2377,0.2531,0.2527,0.2552,0.2539,0.248,0.2361,0.2376,0.2388,0.2281,0.2202,0.2193,0,0,0,0,0,0.1138,0.1169,0.124,0.1338,0.143,0.1504,0.1654,0.1747,0.1946,0.1972,0.208,0.2182,0.2262,0.2351,0.2304,0.2473,0.2477,0.2407,0.2345,0.2458,0.2469,0.2354,0,0,0,0,0,0,0.1092,0.1151,0.1199,0.1225,0.1269,0.1362,0.1461,0.1602,0.1631,0.184,0.1893,0.2043,0.2145,0.2263,0.2259,0.2283,0.2198,0.2516,0.251,0.2452,0.2462,0.2471,0.2356,0,0,0,0,0]},{"header":{"parameterUnit":"m.s-1","parameterCategory":2,"la1":30.2991,"la2":30.254,"lo1":-89.0895,"lo2":-89.0444,"dy":0.0017,"dx":0.0017,"nx":28,"ny":28,"refTime":"2024-03-23T03:00:00:Z","depth":"4","parameterNumber":3,"parameterNumberName":"V-component_of_CURRENTS"},"data":[0,0,0,0,0,0,0,0,0,0,0,0,0,0,0,0,0,0,0,0,0,0,0,0,0,0,0,0,0,0,0,0,0,0,0,0,0,0,0,0,0,0,0,0,0,0,0,0,0,0,0,0,0,0,0,0,0,0,0.0219,0.0219,0,0.0177,0.0177,0.0176,0.0137,0.0136,0.0136,0.0135,0.0036,0.0034,0.0032,0,0,0,0,0,0,0,0,0,0,0,0,0,0.0243,0.0243,0.022,0.0219,0.0218,0.0177,0.0176,0.0176,0.0137,0.0136,0.0136,0.0135,0.0037,0.0034,0.0032,0,0,0,0,0,0,0,0,0,0,0,0,0,0.0221,0.0243,0.022,0.0193,0.019,0.0177,0.0176,0.0176,0.0137,0.0136,0.0135,0.0135,0.0038,0.0035,0.0032,0.0028,0,0,0.0022,0.002,0,0,0,0,0,0,0,0,0.0222,0.022,0.0198,0.0195,0.0192,0.0161,0.0148,0.0123,0.0137,0.0158,0.0135,0.0134,0.0073,0.0067,0.0062,0.0024,0.002,0.0022,0.002,0.0018,0.0017,0,0,0,0,0,0,0,0.0224,0.0221,0.0203,0.0197,0.0194,0.0175,0.0172,0.0144,0.012,0.0156,0.0153,0.0147,0.0071,0.0066,0.006,0.0018,0.0022,0.0019,0.0017,0.0016,-0.0052,-0.0052,0,0,0,0,0,0,0.023,0.0223,0.0205,0.0202,0.0204,0.0176,0.0171,0.0172,0.0122,0.0113,0.0148,0.0146,0.0072,0.0063,0.0056,0.0041,0.0018,0.0015,0.0013,-0.0052,-0.0052,-0.0052,0,0,0,0,0,0,0.023,0.0229,0.0206,0.021,0.0206,0.0176,0.0177,0.0172,0.0166,0.0116,0.0107,0.0147,0.0071,0.006,0.0033,0.0037,0.0014,0.0011,-0.0052,-0.0052,-0.0052,0.0017,0,0,0,0,0,0,0.0231,0.0229,0.0233,0.0211,0.0206,0.02,0.0178,0.0171,0.0163,0.0159,0.0112,0.0102,0.0069,0.0039,0.003,0.0032,0.0008,-0.0052,-0.0052,-0.0052,0.0014,0.0019,0.0023,0,0,0,0,0,0.0233,0.024,0.0234,0.0231,0.0212,0.02,0.0197,0.0172,0.0164,0.0164,0.0133,0.0104,0.0034,0.0036,0.0027,0.0028,-0.0052,-0.0052,-0.0052,0.0012,0.0018,0.0023,0,0,0,0,0,0,0.0249,0.0236,0.0229,0.0231,0.0218,0.0193,0.0193,0.0179,0.0157,0.0154,0.0109,0.0097,0.0071,0.0042,0.0046,0.0008,-0.0016,-0.0017,0.0036,0.0041,0.0046,0.0057,0.0006,0,0,0,0,0,0.0256,0.0261,0.0242,0.0245,0.0242,0.0221,0.0214,0.02,0.0177,0.0167,0.0135,0.0099,0.0066,0.0049,0.0015,-0.0,-0.0042,-0.0008,-0.0003,0.0001,0.0003,-0.0057,-0.0058,-0.0051,-0.0051,-0.0051,0,0,0.0263,0.0257,0.0258,0.0249,0.024,0.0243,0.0215,0.021,0.0211,0.0159,0.0151,0.0113,0.0065,0.0044,0.0031,0.0021,-0.0022,0.0001,0.0005,0.0005,-0.0057,-0.0057,-0.0058,-0.0051,-0.0051,-0.0051,0,0,0.0284,0.0276,0.0289,0.0284,0.0274,0.0261,0.0262,0.0243,0.0232,0.0221,0.0181,0.0148,0.0106,0.007,0.0047,0.0057,0.0003,0.0045,0.008,0.0022,0.0021,0.002,-0.0027,-0.0033,0.005,0.005,0.005,0,0.0293,0.0308,0.029,0.0303,0.0304,0.0274,0.0289,0.0275,0.0249,0.024,0.0226,0.0158,0.0118,0.0085,0.0088,0.0067,0.0029,0.0066,0.0029,0.0026,0.0023,-0.0025,-0.0032,0.0053,0.0053,0.0053,0.0052,0,0.0324,0.0337,0.0346,0.0354,0.035,0.0358,0.0339,0.0334,0.0319,0.0297,0.0264,0.021,0.0169,0.015,0.0124,0.0088,0.0065,0.004,0.0018,0.0027,-0.0024,-0.0033,0.0058,0.0057,0.0056,0.0055,0,0,0.0341,0.0365,0.0368,0.0389,0.0381,0.0385,0.0388,0.0379,0.0381,0.0342,0.0335,0.0275,0.024,0.0211,0.0166,0.0119,0.007,0.0081,0.0076,0.004,-0.0053,-0.0053,-0.0063,0.0038,0.0037,0.0036,-0.0078,0,0.0373,0.0417,0.0414,0.0452,0.0473,0.0454,0.0464,0.0448,0.0421,0.0405,0.034,0.0313,0.0264,0.0249,0.0192,0.0098,0.0047,0.0103,-0.0062,-0.0067,-0.0063,-0.0074,0.0031,-0.0085,-0.0088,-0.0089,-0.009,0,0.0403,0.0431,0.0481,0.0516,0.0524,0.0543,0.0551,0.0553,0.0513,0.0492,0.0441,0.0385,0.0313,0.0274,0.0114,0.0152,0.0059,-0.0016,-0.0023,-0.0054,-0.0084,-0.0101,-0.0108,-0.0107,-0.0105,-0.0104,-0.0103,0,0.043,0.0476,0.0524,0.0535,0.0566,0.0591,0.0604,0.0583,0.0593,0.0544,0.0539,0.0433,0.0392,0.0255,0.0102,0.0104,-0.0077,-0.0097,-0.0187,-0.0188,-0.0183,-0.0181,-0.0211,-0.021,-0.021,-0.021,-0.021,0,0.0463,0.05,0.055,0.0577,0.0642,0.0641,0.069,0.0683,0.0673,0.0686,0.0591,0.0571,0.0385,0.0262,0.0114,-0.0064,-0.0075,-0.0184,-0.022,-0.0151,-0.0143,-0.019,-0.0186,-0.0214,-0.0213,-0.0212,-0.0212,0,0.0485,0.0515,0.0577,0.0634,0.0662,0.0708,0.0768,0.0792,0.0775,0.0788,0.078,0.0667,0.0506,0.0311,0.0085,-0.0035,-0.0213,-0.0272,-0.0177,-0.0205,-0.0289,-0.028,-0.0386,-0.0387,-0.0388,-0.0388,-0.0389,0,0.0503,0.054,0.0627,0.0674,0.071,0.078,0.0831,0.0848,0.087,0.0848,0.0856,0.0721,0.0621,0.0308,0.0092,-0.0201,-0.0238,-0.0331,-0.0318,-0.0284,-0.0308,-0.0298,-0.0289,-0.039,-0.0391,-0.0391,-0.0391,0,0.0536,0.0569,0.062,0.0721,0.0795,0.0872,0.0942,0.0971,0.0984,0.0973,0.0921,0.0761,0.0579,0.0324,0.0095,-0.0113,-0.0275,-0.0341,-0.0341,-0.0329,-0.0291,-0.0312,-0.0301,-0.0394,-0.0393,-0.0393,-0.0393,0,0.0563,0.0601,0.0673,0.0761,0.0854,0.0936,0.0973,0.1007,0.1034,0.1009,0.0991,0.0796,0.0681,0.0369,0.0157,-0.0051,-0.0104,-0.0169,-0.0179,-0.0178,-0.0087,-0.0006,-0.0055,0,0,0,0,0,0.0582,0.0624,0.0705,0.0801,0.0892,0.0955,0.1033,0.1055,0.1077,0.1056,0.1027,0.0861,0.0554,0.0417,0.0209,0.0121,-0.0156,-0.0131,-0.0238,-0.041,-0.0407,-0.0336,0,0,0,0,0,0,0.0591,0.0665,0.0702,0.0819,0.0892,0.0999,0.1057,0.1075,0.1057,0.1047,0.0888,0.0813,0.0509,0.0679,0.0209,0.0144,0.0047,-0.0275,-0.0279,-0.0412,-0.0409,-0.0406,-0.0333,0,0,0,0,0]}]]